Hauptseite
METAR-TAF:

METAR-TAF

Flughäfen :

Orange County Airport

Montgomery, New York, Vereinigte Staaten

Breite: 41-30-33N, Länge: 074-15-54W, Höhe: 111 m

Beobachtung

Neuester Wetterbericht von vor 56 Minuten, um 23:54 UTC
Wind 5 kt aus Süd
Temperatur 3°C
Luftfeuchtigkeit 60%
Luftdruck 1018 hPa
Sichtweite: 16.1 km
Geschlossene Wolkendecke in der Höhe von 4600 ft

METAR: KMGJ 162354Z AUTO 19005KT 10SM OVC046 03/M04 A3005 RMK AO2 SLP180 T00281039 10056 20022 51006

Zeit: 19:50 (00:50 UTC)


TAF: fehlend

Wetterbeobachtungen und Prognosen von mehr als 4000 Flughäfen (METAR und TAF Bericht).

Die verfügbaren Stationen werden durch gelbe und rote Markierungen auf der Karte dargestellt.

Führen Sie die Maus auf sie, um den Namen der Station zu sehen.

Darauf klicken, um die Beobachtung von Wetterbeobachtungen und Prognosen zu sehen.

Um die Karte zu ändern : klicken Sie auf den grünen Tasten mit einem schwarzen Kreuz Zum Vergrößern, auf den grünen Button mit einem Gedankenstrich zu verkleinern, oder auf die grünen Pfeile für benachbarte Karten.


METAR-TAF: